Temperature
-1 -1 -0 -0 0 0 0 0 0 0 1 1 1 1 2 2 2 2 2 3 3 3 3 3 4 4 4 4 4 4 4 5 5 6 6 6 7 7 7 7 7 7 7
-1 -1 -1 -1 -1 -0 -0 -0 -0 0 0 0 1 1 1 1 2 2 2 2 2 3 3 3 3 3 4 4 4 4 4 4 5 5 5 6 6 6 6 6 6 7 7
-2 -2 -1 -1 -1 -1 -1 -1 -1 -0 -0 0 0 0 0 1 1 1 2 2 2 2 2 2 3 3 3 3 3 4 4 4 4 4 5 5 6 6 6 6 6 6 6
-2 -2 -2 -2 -2 -2 -1 -1 -1 -1 -1 -0 -0 -0 -0 0 1 1 1 1 2 2 2 2 2 2 2 3 3 3 3 4 4 4 4 5 5 5 5 5 5 5 6
-3 -3 -2 -2 -2 -2 -2 -2 -2 -2 -2 -1 -1 -1 -1 -0 -0 0 0 1 1 1 2 2 2 2 2 2 2 3 3 3 3 3 4 4 4 5 5 5 5 5 5
-3 -3 -3 -3 -3 -3 -3 -3 -3 -2 -2 -2 -2 -1 -1 -1 -1 -0 -0 0 1 1 1 1 1 1 2 2 2 2 2 3 3 3 3 3 4 4 4 4 4 4 4
-4 -4 -4 -4 -4 -4 -3 -3 -3 -3 -3 -2 -2 -2 -2 -1 -1 -1 -1 -0 0 0 1 1 1 1 1 1 1 1 2 2 2 2 2 3 3 4 4 3 3 3 3
-5 -4 -5 -5 -5 -4 -4 -4 -4 -4 -4 -3 -3 -2 -2 -2 -2 -2 -1 -1 -1 -0 -0 -0 0 0 0 0 0 1 1 1 2 2 2 2 3 3 3 3 3 2 2
-5 -5 -5 -5 -5 -5 -5 -5 -4 -4 -4 -4 -4 -3 -3 -3 -2 -2 -2 -2 -2 -1 -1 -1 -1 -1 -0 -0 -0 -0 0 1 1 1 1 2 2 2 2 2 2 2 1
-6 -6 -6 -6 -6 -6 -5 -5 -5 -5 -5 -4 -4 -4 -3 -3 -3 -3 -3 -3 -2 -2 -2 -2 -2 -2 -1 -1 -1 -1 -1 -0 -0 0 0 1 1 1 1 1 1 1 1
-7 -7 -6 -6 -6 -6 -6 -6 -6 -6 -5 -5 -5 -4 -4 -4 -4 -4 -3 -3 -3 -3 -3 -2 -2 -2 -2 -2 -2 -1 -1 -1 -1 -1 -0 -0 0 0 0 1 1 1 1
-7 -7 -7 -7 -7 -7 -7 -7 -6 -6 -6 -6 -5 -5 -5 -4 -4 -4 -4 -4 -4 -4 -3 -3 -3 -3 -3 -2 -2 -2 -2 -2 -1 -1 -1 -1 -1 -0 -0 -0 -0 -0 -0
-8 -8 -8 -8 -8 -7 -7 -7 -7 -7 -7 -6 -6 -6 -5 -5 -5 -5 -4 -4 -4 -4 -4 -4 -4 -3 -3 -3 -3 -3 -2 -2 -2 -2 -2 -1 -1 -1 -1 -1 -1 -1 -1
-8 -8 -8 -8 -8 -8 -8 -8 -8 -8 -7 -7 -7 -7 -6 -6 -6 -5 -5 -5 -5 -5 -4 -4 -4 -4 -4 -4 -3 -3 -3 -3 -3 -3 -2 -2 -2 -2 -2 -2 -1 -1 -1
-8 -8 -8 -8 -8 -8 -8 -8 -8 -8 -8 -8 -8 -7 -7 -7 -6 -6 -6 -6 -5 -5 -5 -5 -5 -5 -4 -4 -4 -4 -4 -4 -3 -3 -3 -3 -3 -3 -2 -2 -2 -2 -2
-9 -9 -9 -9 -9 -9 -8 -8 -8 -8 -8 -8 -8 -8 -8 -7 -7 -7 -6 -6 -6 -6 -5 -5 -5 -5 -5 -5 -5 -5 -5 -4 -4 -4 -4 -4 -3 -3 -3 -3 -3 -3 -3
-10 -10 -9 -9 -9 -9 -9 -9 -9 -8 -8 -8 -8 -8 -8 -8 -7 -7 -7 -7 -6 -6 -6 -6 -6 -6 -6 -6 -6 -5 -5 -5 -5 -5 -4 -4 -4 -4 -4 -4 -4 -4 -4
-10 -10 -10 -9 -9 -9 -9 -9 -9 -9 -9 -9 -8 -8 -8 -8 -8 -8 -7 -7 -7 -7 -7 -7 -7 -7 -7 -7 -7 -6 -6 -6 -6 -5 -5 -5 -5 -5 -5 -5 -5 -5 -5
-10 -10 -10 -10 -10 -10 -10 -9 -9 -10 -10 -9 -9 -9 -9 -9 -9 -8 -8 -8 -8 -8 -8 -8 -8 -8 -8 -7 -7 -7 -7 -7 -6 -6 -6 -6 -6 -6 -6 -6 -6 -6 -5
-10 -10 -10 -10 -10 -10 -10 -10 -10 -10 -10 -10 -10 -10 -9 -9 -9 -9 -9 -9 -9 -9 -8 -8 -8 -8 -8 -8 -8 -8 -8 -7 -7 -7 -7 -7 -7 -6 -6 -6 -6 -6 -6
-11 -11 -11 -11 -10 -10 -10 -10 -10 -10 -10 -10 -10 -10 -10 -10 -10 -10 -9 -9 -9 -9 -9 -9 -9 -9 -9 -9 -8 -8 -8 -8 -8 -8 -7 -7 -7 -7 -7 -7 -7 -7 -7
-11 -11 -11 -11 -11 -11 -11 -11 -11 -11 -11 -11 -11 -11 -10 -10 -10 -10 -10 -10 -10 -10 -10 -9 -9 -9 -9 -9 -9 -9 -8 -8 -8 -8 -8 -8 -8 -8 -8 -8 -8 -8 -8
-11 -11 -11 -11 -11 -11 -11 -11 -11 -11 -11 -11 -11 -11 -11 -11 -11 -10 -10 -10 -10 -10 -10 -10 -10 -9 -9 -9 -9 -9 -9 -9 -9 -8 -8 -8 -8 -8 -8 -8 -8 -8 -8
-11 -11 -11 -12 -12 -12 -12 -12 -12 -12 -12 -12 -12 -11 -11 -11 -11 -11 -11 -11 -11 -10 -10 -10 -10 -10 -10 -10 -9 -9 -9 -9 -9 -9 -9 -9 -9 -8 -8 -8 -8 -9 -8
-12 -12 -12 -12 -12 -12 -12 -12 -12 -12 -12 -12 -12 -12 -12 -11 -11 -11 -11 -11 -11 -11 -11 -10 -10 -10 -10 -10 -10 -10 -10 -9 -9 -9 -9 -9 -9 -9 -9 -9 -9 -9 -9
-12 -12 -12 -12 -12 -12 -12 -12 -12 -12 -12 -12 -12 -12 -12 -12 -12 -11 -11 -11 -11 -11 -11 -11 -11 -11 -11 -10 -10 -10 -10 -10 -10 -10 -10 -10 -9 -9 -9 -9 -9 -9 -9
Wind_Speed
7 6 6 6 6 5 5 6 6 6 6 6 6 6 7 7 7 7 8 8 9 9 8 8 9 7 6 6 6 6 6 5 7 5 4 3 4 4 5 7 9 9 10
7 7 6 6 6 5 6 6 6 6 5 5 5 6 6 6 6 7 8 8 9 9 9 8 8 6 7 6 6 7 7 6 6 7 5 4 5 5 4 5 6 8 9
7 7 7 7 7 6 6 6 6 6 5 5 5 6 6 6 6 7 7 8 9 9 9 9 8 7 8 6 6 7 6 6 5 6 5 4 4 3 3 3 4 5 6
7 7 7 7 7 7 6 6 5 6 5 5 6 6 6 6 6 7 7 7 8 8 8 8 8 9 9 8 7 7 7 6 6 6 5 4 4 4 4 4 4 4 4
7 7 8 8 7 7 6 6 6 5 6 6 6 6 5 5 6 7 7 7 7 8 8 7 7 8 9 8 7 7 7 7 6 6 6 5 5 5 6 4 4 3 4
7 8 8 8 7 7 7 6 6 6 6 6 6 6 6 6 7 8 7 6 6 7 8 7 7 7 7 8 9 9 9 8 8 7 7 8 7 6 5 5 4 3 4
8 8 8 8 8 7 7 6 6 6 5 6 6 6 6 7 8 8 9 5 5 6 6 6 6 5 6 5 7 7 8 9 9 8 8 9 7 7 7 6 6 5 5
8 8 8 8 8 8 7 6 6 5 5 5 5 5 6 7 8 8 8 5 5 5 5 6 6 5 5 6 6 6 6 6 7 6 7 8 7 6 8 7 6 3 2
8 8 8 7 8 8 7 7 6 5 5 5 5 5 5 6 8 8 8 5 5 5 5 5 5 5 6 6 6 6 6 5 6 7 7 7 8 7 6 4 5 5 4
9 8 8 7 8 8 7 7 6 5 5 5 5 4 4 5 7 7 7 5 5 5 5 5 6 6 6 6 6 6 7 6 4 4 4 5 4 4 6 6 6 6 4
8 8 8 8 7 7 7 6 6 5 4 4 5 5 4 5 7 7 7 4 4 5 4 4 4 6 6 6 6 6 7 5 4 4 3 3 2 3 3 3 3 4 5
8 8 8 8 7 6 6 6 5 4 4 4 4 5 4 4 6 6 7 6 5 4 4 3 4 5 6 6 5 5 5 4 3 3 3 3 3 3 2 2 1 1 2
8 8 8 8 7 6 6 5 5 3 3 4 4 4 4 4 4 6 7 6 5 4 3 3 4 4 4 3 4 4 3 3 3 3 3 3 2 3 2 1 1 1 1
8 8 8 7 7 6 5 4 4 3 3 4 4 4 4 4 4 3 3 3 4 4 3 2 2 2 2 3 2 2 2 2 3 3 2 2 2 2 2 2 2 2 1
7 7 7 6 6 6 5 4 4 4 4 4 4 4 4 4 5 5 4 3 2 2 2 1 0 1 0 1 1 1 1 1 1 1 2 2 2 2 2 2 2 2 2
7 7 5 5 5 5 5 5 7 6 8 7 7 6 5 6 6 6 6 5 4 3 1 1 1 1 1 1 1 1 1 1 1 1 1 2 2 2 2 1 2 2 3
6 6 5 5 5 5 4 4 5 6 7 7 7 7 5 5 5 5 5 5 4 2 1 1 1 1 1 1 1 1 1 1 1 1 1 1 1 1 1 1 2 2 2
6 7 6 4 4 4 4 4 4 4 5 5 6 7 5 5 5 5 4 3 2 2 0 1 1 1 1 1 1 1 1 1 0 1 1 1 1 1 1 1 1 1 2
6 5 5 4 4 4 4 4 3 4 4 4 4 4 4 4 5 4 3 1 0 1 1 1 1 1 1 1 1 1 1 1 1 1 1 1 1 1 1 1 1 1 1
5 8 7 4 4 4 4 3 3 3 3 4 4 4 3 3 2 2 2 1 1 1 1 1 1 1 1 1 1 1 1 1 1 1 1 1 1 1 1 1 1 1 1
5 6 8 5 4 4 4 3 3 3 3 3 4 5 5 2 2 2 2 1 1 1 1 1 1 1 1 1 1 1 1 1 1 1 1 1 1 1 1 2 2 1 1
4 4 4 4 4 4 4 3 3 3 3 4 4 5 7 4 2 2 2 2 2 1 1 1 1 1 1 1 2 1 1 2 2 1 1 1 1 1 1 1 1 1 1
4 5 4 4 4 6 5 4 4 3 4 3 4 4 4 3 2 2 2 2 2 2 2 2 2 2 3 3 2 2 2 3 3 2 2 2 2 2 2 2 2 2 2
4 4 4 4 4 4 4 4 4 4 4 4 4 3 3 3 2 3 2 2 2 3 3 2 2 2 3 4 3 3 3 4 3 3 3 2 2 2 2 2 2 2 2
4 4 4 4 4 4 4 4 4 4 4 4 4 3 3 3 3 3 3 2 3 3 3 3 3 3 4 4 4 4 4 4 3 2 2 2 2 2 2 2 2 2 2
4 4 4 4 4 4 4 4 4 4 4 4 4 3 3 3 3 3 3 2 2 3 3 3 4 4 5 4 4 4 4 4 4 3 2 1 1 2 2 2 2 2 2
Wind_Direction
312 309 307 303 296 283 279 275 273 266 263 258 252 255 251 241 239 237 237 237 233 231 231 233 234 232 227 224 223 223 227 226 244 258 257 253 230 227 229 222 215 211 216
308 308 307 308 309 294 284 282 278 271 266 262 255 256 254 244 239 238 240 239 234 231 232 234 236 235 234 229 226 228 229 225 229 245 246 240 235 221 223 215 215 215 216
313 312 314 315 310 302 291 285 282 274 271 272 261 255 252 249 245 242 240 239 236 231 230 233 232 229 235 235 231 230 232 231 227 233 242 242 233 221 220 212 205 210 219
315 313 313 309 303 299 297 293 282 273 268 265 259 258 254 253 253 249 243 243 242 235 235 232 227 227 231 232 234 232 231 228 225 224 234 239 231 218 203 204 215 211 221
315 313 308 306 304 304 303 302 296 284 270 264 261 256 256 255 256 251 243 245 244 243 238 231 231 235 237 233 236 230 224 222 221 225 228 236 225 208 209 202 215 221 233
312 308 308 307 305 304 302 301 299 295 283 269 261 256 256 260 272 272 264 246 246 247 243 236 237 238 245 246 249 244 233 224 221 226 233 231 226 219 211 205 206 211 236
309 307 307 306 306 305 303 303 299 293 288 283 266 257 256 265 273 271 270 257 246 248 249 241 241 244 247 242 249 251 245 243 235 228 230 234 222 210 204 209 212 222 238
307 307 307 307 308 307 304 302 296 287 282 282 281 271 267 274 275 270 267 257 246 247 249 244 240 240 241 240 236 237 236 239 240 236 233 237 229 214 207 212 211 221 245
306 306 307 308 308 308 305 302 297 287 283 281 281 278 278 289 291 281 270 251 249 253 254 251 247 240 256 253 238 236 240 243 247 245 246 246 236 223 207 191 192 199 231
304 305 307 309 307 306 303 301 296 285 282 287 290 286 279 283 295 295 283 255 251 255 257 252 252 252 255 255 239 229 233 240 232 240 250 255 235 209 202 203 202 205 219
306 308 310 311 306 301 301 302 300 293 292 290 293 295 286 286 292 295 295 270 249 250 255 255 252 259 254 258 258 241 238 237 221 221 224 218 201 187 194 203 211 211 220
310 310 310 311 308 307 306 305 302 296 295 292 295 300 295 290 295 292 297 293 282 257 257 257 259 262 259 261 260 258 248 237 217 213 214 217 202 196 193 181 179 207 232
313 311 310 310 310 310 307 304 305 300 288 293 294 298 303 300 298 301 297 297 295 280 271 276 286 277 271 266 270 259 243 217 215 213 215 223 210 193 174 163 130 110 67
310 310 310 310 311 311 306 303 299 298 291 290 293 296 302 303 299 291 277 280 289 283 284 293 302 312 301 299 292 264 237 225 215 215 210 214 201 186 189 192 203 201 221
309 310 310 308 307 310 305 297 293 282 275 279 281 281 289 295 299 306 303 283 268 264 285 313 310 279 298 304 292 298 279 239 227 208 197 199 193 189 199 202 205 209 224
310 311 309 309 310 311 311 312 312 306 308 302 298 295 296 298 301 306 314 318 316 310 303 281 281 276 277 285 293 308 313 272 223 207 200 198 201 198 203 205 203 201 209
305 308 308 308 310 311 311 310 313 322 324 320 317 315 310 310 310 312 315 320 330 348 344 266 261 268 282 288 289 294 302 291 236 198 201 203 197 194 193 208 211 206 209
310 310 313 308 309 309 309 308 305 310 320 319 319 323 322 317 318 322 325 331 344 8 14 296 279 271 279 289 301 313 310 306 270 215 203 199 193 203 207 209 217 222 218
315 315 313 314 313 309 310 312 314 315 315 318 325 328 328 327 330 338 343 354 347 330 332 325 317 299 300 306 311 311 292 281 292 260 236 233 211 199 211 221 220 223 231
318 320 324 320 320 320 320 322 322 322 322 327 330 327 332 343 353 348 352 352 354 346 338 330 330 322 306 303 300 291 286 283 279 261 246 241 237 215 207 212 207 211 237
319 321 325 325 324 321 323 322 320 320 324 326 325 328 336 345 348 344 344 347 343 341 341 330 322 320 317 309 297 295 295 286 270 254 246 239 229 230 226 215 205 204 218
319 320 325 324 322 324 325 323 321 319 320 321 324 331 341 350 347 339 336 336 341 339 328 320 309 306 300 294 293 293 292 288 283 268 251 238 229 225 226 222 211 208 210
321 322 324 325 323 326 331 334 330 322 321 321 322 326 335 339 338 336 335 336 339 337 332 324 314 314 321 319 310 291 272 270 268 256 234 227 226 224 218 213 211 213 219
322 319 322 324 326 328 326 326 327 326 323 322 326 329 332 336 336 334 336 333 332 328 324 318 313 312 316 318 314 308 296 289 283 261 225 213 220 223 215 207 213 214 220
324 320 319 318 320 321 320 321 323 325 325 324 322 320 321 326 325 324 326 328 328 325 322 316 311 314 314 313 308 305 310 311 304 281 242 216 211 216 210 203 205 206 211
327 324 320 319 318 317 317 317 318 319 318 317 318 320 322 322 321 321 319 321 322 319 316 314 313 313 311 311 310 310 314 316 316 307 287 233 201 203 200 203 197 200 197
Height
1475 1473 1472 1470 1469 1468 1467 1467 1466 1466 1466 1466 1467 1468 1469 1470 1472 1474 1475 1477 1479 1481 1482 1484 1486 1488 1490 1492 1494 1495 1497 1498 1498 1497 1500 1502 1503 1505 1507 1510 1512 1514 1516
1471 1469 1467 1466 1464 1463 1462 1461 1461 1460 1461 1461 1461 1462 1463 1464 1465 1467 1468 1470 1472 1473 1475 1476 1478 1481 1483 1484 1486 1488 1490 1491 1492 1491 1493 1495 1497 1499 1501 1503 1505 1508 1510
1467 1465 1463 1461 1459 1458 1457 1456 1455 1455 1454 1455 1456 1456 1457 1457 1459 1460 1462 1463 1465 1466 1468 1469 1471 1474 1475 1477 1479 1481 1482 1484 1486 1486 1486 1488 1490 1493 1495 1497 1499 1501 1503
1463 1461 1458 1457 1455 1453 1452 1451 1450 1449 1449 1449 1449 1450 1450 1451 1453 1454 1455 1457 1458 1460 1461 1463 1464 1466 1468 1470 1471 1473 1475 1477 1479 1480 1481 1482 1484 1486 1489 1490 1492 1495 1496
1459 1456 1454 1452 1450 1448 1447 1445 1445 1444 1443 1443 1443 1444 1444 1445 1446 1448 1449 1450 1451 1452 1454 1456 1458 1459 1461 1463 1464 1466 1468 1469 1471 1473 1474 1475 1477 1479 1481 1483 1485 1487 1490
1454 1452 1450 1449 1447 1445 1442 1441 1439 1438 1438 1438 1438 1438 1438 1439 1440 1442 1443 1443 1444 1445 1446 1448 1450 1452 1454 1455 1457 1459 1460 1462 1463 1465 1466 1468 1469 1472 1475 1476 1478 1480 1482
1450 1448 1446 1444 1441 1439 1437 1435 1434 1433 1433 1432 1432 1432 1432 1433 1435 1436 1436 1437 1438 1439 1440 1442 1443 1445 1446 1448 1450 1451 1453 1454 1457 1458 1459 1460 1462 1465 1468 1470 1472 1474 1475
1446 1444 1441 1439 1436 1434 1432 1430 1429 1429 1428 1427 1426 1427 1427 1427 1429 1430 1431 1431 1432 1433 1434 1435 1437 1438 1439 1441 1442 1443 1445 1447 1449 1451 1453 1454 1457 1459 1461 1463 1465 1467 1469
1442 1439 1437 1434 1432 1430 1427 1425 1424 1424 1423 1422 1421 1421 1421 1421 1423 1424 1425 1426 1425 1426 1428 1430 1431 1431 1433 1435 1436 1437 1438 1440 1442 1444 1446 1448 1450 1452 1455 1457 1458 1460 1461
1438 1435 1433 1430 1428 1425 1423 1421 1420 1419 1418 1417 1416 1416 1416 1416 1417 1418 1419 1419 1419 1421 1422 1424 1425 1426 1427 1429 1430 1431 1431 1433 1436 1438 1440 1442 1443 1445 1447 1450 1452 1453 1455
1434 1431 1429 1426 1424 1421 1419 1417 1416 1414 1413 1413 1412 1411 1411 1411 1412 1413 1413 1414 1415 1415 1416 1417 1419 1421 1421 1423 1425 1426 1426 1429 1430 1432 1434 1435 1437 1438 1441 1443 1446 1448 1449
1430 1427 1425 1422 1420 1418 1415 1413 1412 1410 1409 1408 1407 1406 1407 1407 1408 1408 1409 1410 1410 1411 1411 1413 1414 1415 1416 1417 1419 1420 1423 1424 1426 1427 1428 1429 1430 1432 1435 1438 1440 1442 1444
1427 1424 1421 1418 1416 1414 1412 1410 1408 1406 1405 1404 1403 1402 1402 1403 1403 1404 1404 1405 1406 1407 1408 1409 1410 1411 1412 1412 1414 1416 1417 1419 1420 1421 1422 1424 1426 1428 1430 1432 1435 1437 1438
1423 1420 1417 1415 1413 1411 1409 1407 1405 1403 1402 1401 1400 1399 1398 1399 1399 1399 1400 1401 1402 1403 1404 1405 1406 1407 1407 1408 1409 1411 1412 1414 1415 1416 1417 1419 1421 1423 1425 1427 1429 1431 1432
1420 1417 1414 1412 1409 1407 1405 1404 1402 1401 1400 1399 1398 1397 1396 1395 1396 1397 1397 1398 1398 1399 1400 1401 1402 1402 1403 1403 1405 1406 1408 1409 1410 1412 1413 1415 1416 1418 1420 1422 1424 1425 1426
1417 1414 1411 1409 1407 1404 1402 1401 1399 1399 1397 1397 1396 1395 1394 1394 1393 1394 1395 1395 1396 1397 1397 1397 1397 1398 1398 1399 1400 1402 1403 1405 1406 1408 1409 1410 1412 1413 1415 1417 1419 1420 1421
1414 1411 1409 1407 1404 1402 1400 1398 1396 1395 1395 1393 1393 1392 1391 1391 1391 1391 1392 1392 1393 1394 1393 1393 1394 1395 1395 1396 1397 1398 1400 1402 1403 1404 1405 1406 1408 1409 1410 1412 1414 1415 1416
1412 1409 1407 1404 1402 1400 1398 1396 1394 1392 1391 1390 1390 1389 1389 1389 1389 1389 1389 1390 1390 1390 1390 1390 1391 1392 1393 1394 1395 1396 1397 1398 1400 1401 1402 1403 1404 1405 1406 1408 1409 1411 1412
1410 1407 1405 1402 1400 1398 1396 1394 1392 1391 1389 1388 1387 1387 1387 1387 1387 1387 1387 1387 1387 1388 1388 1389 1390 1390 1391 1392 1392 1393 1394 1395 1396 1397 1398 1399 1400 1402 1403 1404 1406 1407 1408
1408 1405 1403 1401 1398 1396 1394 1392 1390 1389 1388 1387 1386 1385 1385 1384 1384 1385 1385 1385 1386 1386 1387 1387 1388 1389 1389 1390 1390 1391 1391 1392 1393 1394 1395 1396 1397 1399 1400 1401 1402 1404 1405
1406 1404 1401 1399 1396 1394 1392 1391 1389 1388 1387 1386 1385 1385 1384 1384 1383 1384 1384 1384 1385 1385 1385 1386 1387 1387 1388 1388 1388 1389 1389 1389 1390 1391 1392 1393 1395 1396 1397 1399 1400 1401 1402
1405 1402 1400 1398 1396 1393 1392 1390 1389 1387 1386 1385 1384 1384 1384 1383 1383 1383 1383 1384 1384 1384 1385 1385 1385 1385 1386 1386 1386 1386 1387 1387 1388 1388 1390 1391 1392 1393 1394 1395 1396 1398 1399
1404 1402 1399 1397 1395 1393 1391 1389 1388 1387 1386 1385 1384 1383 1383 1383 1383 1383 1383 1383 1383 1383 1384 1384 1384 1384 1384 1385 1385 1385 1385 1385 1385 1386 1387 1388 1389 1390 1391 1392 1393 1395 1396
1403 1401 1398 1396 1394 1392 1390 1389 1387 1386 1385 1384 1383 1382 1382 1382 1382 1382 1382 1382 1382 1382 1382 1382 1382 1382 1382 1382 1383 1383 1383 1383 1384 1384 1385 1385 1386 1387 1389 1390 1391 1392 1393
1403 1400 1398 1396 1393 1391 1389 1388 1386 1385 1384 1383 1382 1382 1381 1381 1381 1381 1381 1381 1381 1380 1380 1380 1380 1380 1380 1381 1381 1381 1381 1381 1382 1382 1383 1383 1384 1385 1386 1387 1388 1389 1390
1402 1399 1397 1395 1393 1391 1389 1387 1385 1384 1383 1382 1382 1381 1381 1380 1380 1380 1379 1379 1379 1379 1378 1378 1378 1378 1378 1379 1379 1379 1379 1379 1380 1380 1381 1381 1382 1383 1384 1385 1386 1387 1388